Regional Weather Roundup
Issued by NWS Midland/Odessa, TX

Home | Current Version | Previous Version | Text Only | Print | Product List | Glossary On
Versions: 1 2 3 4 5 6 7 8 9 10 11 12 13 14 15 16 17 18 19 20 21 22 23 24 25 26 27 28 29 30 31 32 33 34 35 36 37 38 39 40 41 42 43 44 45 46 47 48 49 50
000
ASUS44 KMAF 290310
RWRMAF
MIDLAND AREA WEATHER ROUNDUP
NATIONAL WEATHER SERVICE MIDLAND TX
900 PM CST SUN DEC 28 2014

...IN SOUTHWEST TEXAS AND SOUTHEAST NEW MEXICO...

CITY           SKY/WX    TMP DP  RH WIND       PRES   REMARKS
ALPINE         CLEAR     42  28  57 SW12      30.16S WCI  36
ANDREWS        FAIR      41  28  57 SW10      30.05R WCI  35
ARTESIA        CLEAR     39  14  35 SW13      30.04R WCI  32
BIG SPRING     CLEAR     40  26  57 SE7       30.09S WCI  35
CARLSBAD       PTCLDY    43  26  51 SW13      30.01F WCI  36
DRYDEN           N/A     45  34  65 CALM      30.09S
FORT STOCKTON  CLEAR     42  30  62 SW9       30.08S WCI  37
GUAD PASS      NOT AVBL
HOBBS          CLEAR     34  27  75 SW5       30.04S WCI  30
MARFA          CLEAR     28  25  86 W5        30.15S WCI  23
MIDLAND AIRPK  PTCLDY    47  29  50 SW10      30.06F
MIDLAND INTL   PTCLDY    43  28  55 SW10      30.05F WCI  37
ODESSA         CLEAR     41  27  57 SW5       30.06S WCI  38
PECOS          CLEAR     41  31  67 NW9       30.07S WCI  35
PRESIDIO       FAIR      44  30  58 N7        30.12S WCI  40
SEMINOLE       PTCLDY    37  28  72 CALM      30.04S
SNYDER         PTCLDY    37  25  61 S10       30.05S WCI  30
WINK           CLEAR     41  28  60 SW9       30.05S WCI  35
$$
...OTHER STATIONS IN TEXAS...

CITY           SKY/WX    TMP DP  RH WIND       PRES   REMARKS
ABILENE        CLEAR     38  26  62 S9        30.07S WCI  31
AMARILLO       PTCLDY    33   8  35 S5        29.93R WCI  29
AUSTIN         CLEAR     33  30  88 CALM      30.17F
BROWNSVILLE    CLOUDY    47  43  86 N8        30.20R
CORPUS CHRISTI PTCLDY    44  41  89 N6        30.20S
DALLAS FTW     CLEAR     38  25  59 S8        30.13S WCI  32
DEL RIO        CLEAR     46  30  53 E5        30.14S
EL PASO        PTCLDY    43  25  49 S6        30.12R WCI  39
HOUSTON INT    CLOUDY    42  39  89 N5        30.17R WCI  39
LUBBOCK        PTCLDY    42  25  50 SW13      29.98R WCI  35
SAN ANGELO     CLEAR     42  30  62 S7        30.08R WCI  38
SAN ANTONIO    CLEAR     39  35  86 CALM      30.17S
WACO           CLEAR     33  27  78 S7        30.17S WCI  27
WICHITA FALLS  NOT AVBL
$$
...OTHER LOCATIONS IN NEW MEXICO...

CITY           SKY/WX    TMP DP  RH WIND       PRES   REMARKS
ALAMAGORDO     PTCLDY    36  14  41 SE6       30.12R WCI  31
ALBUQUERQUE    PTCLDY    25  13  60 E5        30.07F WCI  19
CANNON AFB     MOCLDY    39   7  27 W20       29.95F WCI  29
CLOVIS         PTCLDY    41   7  24 W17       29.94S WCI  32
HOLLOMAN AFB   PTCLDY    36  18  48 E5        30.10S WCI  32
ROSWELL        PTCLDY    35  17  47 NW5       30.02R WCI  31
RUIDOSO        CLEAR     28   7  40 W5        30.06S WCI  23
SANTA FE       PTCLDY    22   8  55 NW5       30.03S WCI  16
TRUTH OR CONSE PTCLDY    35  13  40 N5        30.08R WCI  31
TUCUMCARI      CLOUDY    39  14  36 W18       29.92R WCI  30
$$


USA.gov is the U.S. government's official web portal to all federal, state and local government web resources and services.